M I D A S
Marine Information and Data Acquisition System
Tripno 1855 of the Zeeleeuw from 2010-04-06 09:10:00 to 2010-04-06 20:05:00
Back to CruiseResearch ActivitiesStationsMapUnderway DataData graphs

EquipmentUnitsComments
TimeDGPSUTC
LatitudeDGPSDM.mWGS84
LongitudeDGPSDM.mWGS84
SpeedMeteo Stationm/sRelative wind speed
DirectionMeteo StationdegRelative wind direction
TemperatureMeteo Stationdeg CelciusAir temperature
PressureMeteo StationPaAtmospheric pressure
HumidityMeteo Station%Relative humidity
Missing or incorrect values are displayed as -999
Metereological data collected by the RV Zeeleeuw from 2010-04-06 09:10:00 to 2010-04-06 20:05:00
                                                                                    Next 1000 lines
Time Latitude Longitude Speed Direction Temperature Pressure Humidity
2010-04-06 09:10:20 51°32.413 2°55.42 -999 -999 -999 -999 -999
2010-04-06 09:10:30 51°32.414 2°55.43 -999 -999 -999 -999 -999
2010-04-06 09:10:40 51°32.415 2°55.44 -999 -999 -999 -999 -999
2010-04-06 09:10:50 51°32.415 2°55.45 -999 -999 -999 -999 -999
2010-04-06 09:11:00 51°32.416 2°55.46 -999 -999 -999 -999 -999
2010-04-06 09:11:10 51°32.415 2°55.469 -999 -999 -999 -999 -999
2010-04-06 09:11:20 51°32.415 2°55.478 -999 -999 -999 -999 -999
2010-04-06 09:11:30 51°32.414 2°55.486 -999 -999 -999 -999 -999
2010-04-06 09:11:40 51°32.412 2°55.494 -999 -999 -999 -999 -999
2010-04-06 09:11:50 51°32.411 2°55.501 -999 -999 -999 -999 -999
2010-04-06 09:12:00 51°32.408 2°55.508 -999 -999 -999 -999 -999
2010-04-06 09:12:10 51°32.406 2°55.514 -999 -999 -999 -999 -999
2010-04-06 09:12:20 51°32.403 2°55.52 -999 -999 -999 -999 -999
2010-04-06 09:12:30 51°32.4 2°55.525 -999 -999 -999 -999 -999
2010-04-06 09:12:40 51°32.397 2°55.529 -999 -999 -999 -999 -999
2010-04-06 09:12:50 51°32.393 2°55.532 -999 -999 -999 -999 -999
2010-04-06 09:13:00 51°32.389 2°55.535 -999 -999 -999 -999 -999
2010-04-06 09:13:10 51°32.385 2°55.536 -999 -999 -999 -999 -999
2010-04-06 09:13:20 51°32.381 2°55.537 -999 -999 -999 -999 -999
2010-04-06 09:13:30 51°32.377 2°55.536 -999 -999 -999 -999 -999
2010-04-06 09:13:40 51°32.373 2°55.534 -999 -999 -999 -999 -999
2010-04-06 09:13:50 51°32.37 2°55.531 -999 -999 -999 -999 -999
2010-04-06 09:14:00 51°32.366 2°55.528 -999 -999 -999 -999 -999
2010-04-06 09:14:10 51°32.362 2°55.523 -999 -999 -999 -999 -999
2010-04-06 09:14:20 51°32.358 2°55.518 -999 -999 -999 -999 -999
2010-04-06 09:14:30 51°32.355 2°55.511 -999 -999 -999 -999 -999
2010-04-06 09:14:40 51°32.353 2°55.504 -999 -999 -999 -999 -999
2010-04-06 09:14:50 51°32.351 2°55.497 -999 -999 -999 -999 -999
2010-04-06 09:15:00 51°32.349 2°55.489 -999 -999 -999 -999 -999
2010-04-06 09:15:10 51°32.348 2°55.481 -999 -999 -999 -999 -999
2010-04-06 09:15:20 51°32.348 2°55.474 -999 -999 -999 -999 -999
2010-04-06 09:15:30 51°32.347 2°55.467 -999 -999 -999 -999 -999
2010-04-06 09:15:40 51°32.347 2°55.459 -999 -999 -999 -999 -999
2010-04-06 09:15:50 51°32.347 2°55.452 -999 -999 -999 -999 -999
2010-04-06 09:16:00 51°32.348 2°55.446 -999 -999 -999 -999 -999
2010-04-06 09:16:10 51°32.348 2°55.439 -999 -999 -999 -999 -999
2010-04-06 09:16:20 51°32.348 2°55.432 -999 -999 -999 -999 -999
2010-04-06 09:16:30 51°32.349 2°55.426 -999 -999 -999 -999 -999
2010-04-06 09:16:40 51°32.349 2°55.42 -999 -999 -999 -999 -999
2010-04-06 09:16:50 51°32.35 2°55.415 -999 -999 -999 -999 -999
2010-04-06 09:17:00 51°32.35 2°55.409 -999 -999 -999 -999 -999
2010-04-06 09:17:10 51°32.351 2°55.404 -999 -999 -999 -999 -999
2010-04-06 09:17:20 51°32.351 2°55.399 -999 -999 -999 -999 -999
2010-04-06 09:17:30 51°32.352 2°55.394 -999 -999 -999 -999 -999
2010-04-06 09:17:40 51°32.353 2°55.389 -999 -999 -999 -999 -999
2010-04-06 09:17:50 51°32.354 2°55.385 -999 -999 -999 -999 -999
2010-04-06 09:18:00 51°32.355 2°55.38 -999 -999 -999 -999 -999
2010-04-06 09:18:10 51°32.355 2°55.377 -999 -999 -999 -999 -999
2010-04-06 09:18:20 51°32.356 2°55.373 -999 -999 -999 -999 -999
2010-04-06 09:18:30 51°32.357 2°55.369 -999 -999 -999 -999 -999
2010-04-06 09:18:40 51°32.358 2°55.366 -999 -999 -999 -999 -999
2010-04-06 09:18:50 51°32.359 2°55.362 -999 -999 -999 -999 -999
2010-04-06 09:19:00 51°32.36 2°55.359 -999 -999 -999 -999 -999
2010-04-06 09:19:10 51°32.361 2°55.356 -999 -999 -999 -999 -999
2010-04-06 09:19:20 51°32.363 2°55.352 -999 -999 -999 -999 -999
2010-04-06 09:19:30 51°32.364 2°55.349 -999 -999 -999 -999 -999
2010-04-06 09:19:40 51°32.365 2°55.346 -999 -999 -999 -999 -999
2010-04-06 09:19:50 51°32.366 2°55.343 -999 -999 -999 -999 -999
2010-04-06 09:20:00 51°32.367 2°55.339 -999 -999 -999 -999 -999
2010-04-06 09:20:10 51°32.367 2°55.334 -999 -999 -999 -999 -999
2010-04-06 09:20:20 51°32.366 2°55.329 -999 -999 -999 -999 -999
2010-04-06 09:20:30 51°32.363 2°55.324 -999 -999 -999 -999 -999
2010-04-06 09:20:40 51°32.36 2°55.318 -999 -999 -999 -999 -999
2010-04-06 09:20:50 51°32.358 2°55.315 -999 -999 -999 -999 -999
2010-04-06 09:21:00 51°32.354 2°55.311 -999 -999 -999 -999 -999
2010-04-06 09:21:10 51°32.35 2°55.309 -999 -999 -999 -999 -999
2010-04-06 09:21:20 51°32.345 2°55.309 -999 -999 -999 -999 -999
2010-04-06 09:21:30 51°32.341 2°55.31 -999 -999 -999 -999 -999
2010-04-06 09:21:40 51°32.336 2°55.313 -999 -999 -999 -999 -999
2010-04-06 09:21:50 51°32.332 2°55.316 -999 -999 -999 -999 -999
2010-04-06 09:22:00 51°32.328 2°55.322 -999 -999 -999 -999 -999
2010-04-06 09:22:10 51°32.325 2°55.328 -999 -999 -999 -999 -999
2010-04-06 09:22:20 51°32.324 2°55.336 -999 -999 -999 -999 -999
2010-04-06 09:22:30 51°32.323 2°55.346 -999 -999 -999 -999 -999
2010-04-06 09:22:40 51°32.323 2°55.355 -999 -999 -999 -999 -999
2010-04-06 09:22:50 51°32.325 2°55.366 -999 -999 -999 -999 -999
2010-04-06 09:23:00 51°32.328 2°55.378 -999 -999 -999 -999 -999
2010-04-06 09:23:10 51°32.334 2°55.39 -999 -999 -999 -999 -999
2010-04-06 09:23:20 51°32.343 2°55.401 -999 -999 -999 -999 -999
2010-04-06 09:23:30 51°32.355 2°55.409 -999 -999 -999 -999 -999
2010-04-06 09:23:40 51°32.369 2°55.411 -999 -999 -999 -999 -999
2010-04-06 09:23:50 51°32.386 2°55.407 -999 -999 -999 -999 -999
2010-04-06 09:24:00 51°32.404 2°55.398 -999 -999 -999 -999 -999
2010-04-06 09:24:10 51°32.421 2°55.382 -999 -999 -999 -999 -999
2010-04-06 09:24:20 51°32.44 2°55.362 -999 -999 -999 -999 -999
2010-04-06 09:24:30 51°32.462 2°55.339 -999 -999 -999 -999 -999
2010-04-06 09:24:40 51°32.489 2°55.314 -999 -999 -999 -999 -999
2010-04-06 09:24:50 51°32.514 2°55.295 -999 -999 -999 -999 -999
2010-04-06 09:25:00 51°32.542 2°55.272 -999 -999 -999 -999 -999
2010-04-06 09:25:10 51°32.569 2°55.244 -999 -999 -999 -999 -999
2010-04-06 09:25:20 51°32.597 2°55.206 -999 -999 -999 -999 -999
2010-04-06 09:25:30 51°32.62 2°55.174 -999 -999 -999 -999 -999
2010-04-06 09:25:40 51°32.645 2°55.135 -999 -999 -999 -999 -999
2010-04-06 09:25:50 51°32.672 2°55.094 -999 -999 -999 -999 -999
2010-04-06 09:26:00 51°32.699 2°55.051 -999 -999 -999 -999 -999
2010-04-06 09:26:10 51°32.726 2°55.006 -999 -999 -999 -999 -999
2010-04-06 09:26:20 51°32.754 2°54.962 -999 -999 -999 -999 -999
2010-04-06 09:26:30 51°32.786 2°54.929 -999 -999 -999 -999 -999
2010-04-06 09:26:40 51°32.821 2°54.906 -999 -999 -999 -999 -999
2010-04-06 09:26:50 51°32.858 2°54.887 -999 -999 -999 -999 -999
2010-04-06 09:27:00 51°32.895 2°54.869 -999 -999 -999 -999 -999
2010-04-06 09:27:10 51°32.933 2°54.855 -999 -999 -999 -999 -999
2010-04-06 09:27:20 51°32.971 2°54.847 -999 -999 -999 -999 -999
2010-04-06 09:27:30 51°33.01 2°54.846 -999 -999 -999 -999 -999
2010-04-06 09:27:40 51°33.048 2°54.852 -999 -999 -999 -999 -999
2010-04-06 09:27:50 51°33.084 2°54.87 -999 -999 -999 -999 -999
2010-04-06 09:28:00 51°33.117 2°54.899 -999 -999 -999 -999 -999
2010-04-06 09:28:10 51°33.148 2°54.934 -999 -999 -999 -999 -999
2010-04-06 09:28:20 51°33.179 2°54.967 -999 -999 -999 -999 -999
2010-04-06 09:28:30 51°33.211 2°55 -999 -999 -999 -999 -999
2010-04-06 09:28:40 51°33.24 2°55.038 -999 -999 -999 -999 -999
2010-04-06 09:28:50 51°33.266 2°55.082 -999 -999 -999 -999 -999
2010-04-06 09:29:00 51°33.285 2°55.133 -999 -999 -999 -999 -999
2010-04-06 09:29:10 51°33.295 2°55.185 -999 -999 -999 -999 -999
2010-04-06 09:29:20 51°33.297 2°55.235 -999 -999 -999 -999 -999
2010-04-06 09:29:30 51°33.295 2°55.281 -999 -999 -999 -999 -999
2010-04-06 09:29:40 51°33.291 2°55.325 -999 -999 -999 -999 -999
2010-04-06 09:29:50 51°33.287 2°55.364 -999 -999 -999 -999 -999
2010-04-06 09:30:00 51°33.282 2°55.398 -999 -999 -999 -999 -999
2010-04-06 09:30:10 51°33.277 2°55.43 -999 -999 -999 -999 -999
2010-04-06 09:30:20 51°33.27 2°55.462 -999 -999 -999 -999 -999
2010-04-06 09:30:30 51°33.264 2°55.486 -999 -999 -999 -999 -999
2010-04-06 09:30:40 51°33.258 2°55.512 -999 -999 -999 -999 -999
2010-04-06 09:30:50 51°33.252 2°55.536 -999 -999 -999 -999 -999
2010-04-06 09:31:00 51°33.246 2°55.558 -999 -999 -999 -999 -999
2010-04-06 09:31:10 51°33.241 2°55.578 -999 -999 -999 -999 -999
2010-04-06 09:31:20 51°33.236 2°55.596 -999 -999 -999 -999 -999
2010-04-06 09:31:30 51°33.231 2°55.612 -999 -999 -999 -999 -999
2010-04-06 09:31:40 51°33.226 2°55.627 -999 -999 -999 -999 -999
2010-04-06 09:31:50 51°33.222 2°55.641 -999 -999 -999 -999 -999
2010-04-06 09:32:00 51°33.218 2°55.654 -999 -999 -999 -999 -999
2010-04-06 09:32:10 51°33.214 2°55.667 -999 -999 -999 -999 -999
2010-04-06 09:32:20 51°33.211 2°55.679 -999 -999 -999 -999 -999
2010-04-06 09:32:30 51°33.209 2°55.689 -999 -999 -999 -999 -999
2010-04-06 09:32:40 51°33.207 2°55.7 -999 -999 -999 -999 -999
2010-04-06 09:32:50 51°33.205 2°55.71 -999 -999 -999 -999 -999
2010-04-06 09:33:00 51°33.204 2°55.72 -999 -999 -999 -999 -999
2010-04-06 09:33:10 51°33.203 2°55.73 -999 -999 -999 -999 -999
2010-04-06 09:33:20 51°33.202 2°55.739 -999 -999 -999 -999 -999
2010-04-06 09:33:30 51°33.201 2°55.747 -999 -999 -999 -999 -999
2010-04-06 09:33:40 51°33.201 2°55.755 -999 -999 -999 -999 -999
2010-04-06 09:33:50 51°33.201 2°55.762 -999 -999 -999 -999 -999
2010-04-06 09:34:00 51°33.201 2°55.769 -999 -999 -999 -999 -999
2010-04-06 09:34:10 51°33.201 2°55.776 -999 -999 -999 -999 -999
2010-04-06 09:34:20 51°33.201 2°55.782 -999 -999 -999 -999 -999
2010-04-06 09:34:30 51°33.201 2°55.787 -999 -999 -999 -999 -999
2010-04-06 09:34:40 51°33.202 2°55.792 -999 -999 -999 -999 -999
2010-04-06 09:34:50 51°33.202 2°55.797 -999 -999 -999 -999 -999
2010-04-06 09:35:00 51°33.202 2°55.802 -999 -999 -999 -999 -999
2010-04-06 09:35:10 51°33.203 2°55.806 -999 -999 -999 -999 -999
2010-04-06 09:35:20 51°33.204 2°55.81 -999 -999 -999 -999 -999
2010-04-06 09:35:30 51°33.204 2°55.813 -999 -999 -999 -999 -999
2010-04-06 09:35:40 51°33.205 2°55.816 -999 -999 -999 -999 -999
2010-04-06 09:35:50 51°33.205 2°55.819 -999 -999 -999 -999 -999
2010-04-06 09:36:00 51°33.206 2°55.822 -999 -999 -999 -999 -999
2010-04-06 09:36:10 51°33.207 2°55.824 -999 -999 -999 -999 -999
2010-04-06 09:36:20 51°33.208 2°55.827 -999 -999 -999 -999 -999
2010-04-06 09:36:30 51°33.209 2°55.829 -999 -999 -999 -999 -999
2010-04-06 09:36:40 51°33.21 2°55.83 -999 -999 -999 -999 -999
2010-04-06 09:36:50 51°33.211 2°55.832 -999 -999 -999 -999 -999
2010-04-06 09:37:00 51°33.212 2°55.833 -999 -999 -999 -999 -999
2010-04-06 09:37:10 51°33.213 2°55.834 -999 -999 -999 -999 -999
2010-04-06 09:37:20 51°33.213 2°55.835 -999 -999 -999 -999 -999
2010-04-06 09:37:30 51°33.214 2°55.835 -999 -999 -999 -999 -999
2010-04-06 09:37:40 51°33.215 2°55.836 -999 -999 -999 -999 -999
2010-04-06 09:37:50 51°33.216 2°55.836 -999 -999 -999 -999 -999
2010-04-06 09:38:00 51°33.217 2°55.837 -999 -999 -999 -999 -999
2010-04-06 09:38:10 51°33.217 2°55.837 -999 -999 -999 -999 -999
2010-04-06 09:38:20 51°33.218 2°55.837 -999 -999 -999 -999 -999
2010-04-06 09:38:30 51°33.22 2°55.837 -999 -999 -999 -999 -999
2010-04-06 09:38:40 51°33.221 2°55.836 -999 -999 -999 -999 -999
2010-04-06 09:38:50 51°33.222 2°55.836 -999 -999 -999 -999 -999
2010-04-06 09:39:00 51°33.223 2°55.836 -999 -999 -999 -999 -999
2010-04-06 09:39:10 51°33.224 2°55.835 -999 -999 -999 -999 -999
2010-04-06 09:39:20 51°33.225 2°55.834 -999 -999 -999 -999 -999
2010-04-06 09:39:30 51°33.227 2°55.834 -999 -999 -999 -999 -999
2010-04-06 09:39:40 51°33.228 2°55.833 -999 -999 -999 -999 -999
2010-04-06 09:39:50 51°33.229 2°55.832 -999 -999 -999 -999 -999
2010-04-06 09:40:00 51°33.23 2°55.831 -999 -999 -999 -999 -999
2010-04-06 09:40:10 51°33.232 2°55.83 -999 -999 -999 -999 -999
2010-04-06 09:40:20 51°33.233 2°55.829 -999 -999 -999 -999 -999
2010-04-06 09:40:30 51°33.235 2°55.828 -999 -999 -999 -999 -999
2010-04-06 09:40:40 51°33.236 2°55.827 -999 -999 -999 -999 -999
2010-04-06 09:40:50 51°33.238 2°55.826 -999 -999 -999 -999 -999
2010-04-06 09:41:00 51°33.239 2°55.825 -999 -999 -999 -999 -999
2010-04-06 09:41:10 51°33.241 2°55.824 -999 -999 -999 -999 -999
2010-04-06 09:41:20 51°33.242 2°55.822 -999 -999 -999 -999 -999
2010-04-06 09:41:30 51°33.244 2°55.821 -999 -999 -999 -999 -999
2010-04-06 09:41:40 51°33.246 2°55.819 -999 -999 -999 -999 -999
2010-04-06 09:41:50 51°33.247 2°55.817 -999 -999 -999 -999 -999
2010-04-06 09:42:00 51°33.249 2°55.816 -999 -999 -999 -999 -999
2010-04-06 09:42:10 51°33.25 2°55.814 -999 -999 -999 -999 -999
2010-04-06 09:42:20 51°33.252 2°55.812 -999 -999 -999 -999 -999
2010-04-06 09:42:30 51°33.253 2°55.811 -999 -999 -999 -999 -999
2010-04-06 09:42:40 51°33.255 2°55.809 -999 -999 -999 -999 -999
2010-04-06 09:42:50 51°33.256 2°55.807 -999 -999 -999 -999 -999
2010-04-06 09:43:00 51°33.258 2°55.805 -999 -999 -999 -999 -999
2010-04-06 09:43:10 51°33.26 2°55.803 -999 -999 -999 -999 -999
2010-04-06 09:43:20 51°33.261 2°55.801 -999 -999 -999 -999 -999
2010-04-06 09:43:30 51°33.263 2°55.799 -999 -999 -999 -999 -999
2010-04-06 09:43:40 51°33.264 2°55.797 -999 -999 -999 -999 -999
2010-04-06 09:43:50 51°33.266 2°55.796 -999 -999 -999 -999 -999
2010-04-06 09:44:00 51°33.268 2°55.793 -999 -999 -999 -999 -999
2010-04-06 09:44:10 51°33.269 2°55.791 -999 -999 -999 -999 -999
2010-04-06 09:44:20 51°33.27 2°55.789 -999 -999 -999 -999 -999
2010-04-06 09:44:30 51°33.272 2°55.787 -999 -999 -999 -999 -999
2010-04-06 09:44:40 51°33.274 2°55.785 -999 -999 -999 -999 -999
2010-04-06 09:44:50 51°33.275 2°55.783 -999 -999 -999 -999 -999
2010-04-06 09:45:00 51°33.277 2°55.781 -999 -999 -999 -999 -999
2010-04-06 09:45:10 51°33.279 2°55.779 -999 -999 -999 -999 -999
2010-04-06 09:45:20 51°33.28 2°55.777 -999 -999 -999 -999 -999
2010-04-06 09:45:30 51°33.281 2°55.775 -999 -999 -999 -999 -999
2010-04-06 09:45:40 51°33.283 2°55.773 -999 -999 -999 -999 -999
2010-04-06 09:45:50 51°33.284 2°55.771 -999 -999 -999 -999 -999
2010-04-06 09:46:00 51°33.286 2°55.769 -999 -999 -999 -999 -999
2010-04-06 09:46:10 51°33.288 2°55.767 -999 -999 -999 -999 -999
2010-04-06 09:46:20 51°33.289 2°55.765 -999 -999 -999 -999 -999
2010-04-06 09:46:30 51°33.291 2°55.763 -999 -999 -999 -999 -999
2010-04-06 09:46:40 51°33.292 2°55.761 -999 -999 -999 -999 -999
2010-04-06 09:46:50 51°33.294 2°55.759 -999 -999 -999 -999 -999
2010-04-06 09:47:00 51°33.296 2°55.757 -999 -999 -999 -999 -999
2010-04-06 09:47:10 51°33.298 2°55.756 -999 -999 -999 -999 -999
2010-04-06 09:47:20 51°33.299 2°55.754 -999 -999 -999 -999 -999
2010-04-06 09:47:30 51°33.3 2°55.752 -999 -999 -999 -999 -999
2010-04-06 09:47:40 51°33.302 2°55.751 -999 -999 -999 -999 -999
2010-04-06 09:47:50 51°33.304 2°55.749 -999 -999 -999 -999 -999
2010-04-06 09:48:00 51°33.305 2°55.747 -999 -999 -999 -999 -999
2010-04-06 09:48:10 51°33.307 2°55.746 -999 -999 -999 -999 -999
2010-04-06 09:48:20 51°33.309 2°55.744 -999 -999 -999 -999 -999
2010-04-06 09:48:30 51°33.31 2°55.743 -999 -999 -999 -999 -999
2010-04-06 09:48:40 51°33.312 2°55.742 -999 -999 -999 -999 -999
2010-04-06 09:48:50 51°33.314 2°55.74 -999 -999 -999 -999 -999
2010-04-06 09:49:00 51°33.316 2°55.739 -999 -999 -999 -999 -999
2010-04-06 09:49:10 51°33.317 2°55.738 -999 -999 -999 -999 -999
2010-04-06 09:49:20 51°33.318 2°55.736 -999 -999 -999 -999 -999
2010-04-06 09:49:30 51°33.319 2°55.735 -999 -999 -999 -999 -999
2010-04-06 09:49:40 51°33.321 2°55.734 -999 -999 -999 -999 -999
2010-04-06 09:49:50 51°33.323 2°55.733 -999 -999 -999 -999 -999
2010-04-06 09:50:00 51°33.324 2°55.731 -999 -999 -999 -999 -999
2010-04-06 09:50:10 51°33.325 2°55.73 -999 -999 -999 -999 -999
2010-04-06 09:50:20 51°33.327 2°55.729 -999 -999 -999 -999 -999
2010-04-06 09:50:30 51°33.328 2°55.728 -999 -999 -999 -999 -999
2010-04-06 09:50:40 51°33.329 2°55.727 -999 -999 -999 -999 -999
2010-04-06 09:50:50 51°33.33 2°55.726 -999 -999 -999 -999 -999
2010-04-06 09:51:00 51°33.332 2°55.724 -999 -999 -999 -999 -999
2010-04-06 09:51:10 51°33.333 2°55.723 -999 -999 -999 -999 -999
2010-04-06 09:51:20 51°33.335 2°55.722 -999 -999 -999 -999 -999
2010-04-06 09:51:30 51°33.336 2°55.721 -999 -999 -999 -999 -999
2010-04-06 09:51:40 51°33.337 2°55.719 -999 -999 -999 -999 -999
2010-04-06 09:51:50 51°33.339 2°55.718 -999 -999 -999 -999 -999
2010-04-06 09:52:00 51°33.34 2°55.717 -999 -999 -999 -999 -999
2010-04-06 09:52:10 51°33.341 2°55.716 -999 -999 -999 -999 -999
2010-04-06 09:52:20 51°33.343 2°55.714 -999 -999 -999 -999 -999
2010-04-06 09:52:30 51°33.344 2°55.713 -999 -999 -999 -999 -999
2010-04-06 09:52:40 51°33.346 2°55.711 -999 -999 -999 -999 -999
2010-04-06 09:52:50 51°33.347 2°55.71 -999 -999 -999 -999 -999
2010-04-06 09:53:00 51°33.348 2°55.709 -999 -999 -999 -999 -999
2010-04-06 09:53:10 51°33.349 2°55.707 -999 -999 -999 -999 -999
2010-04-06 09:53:20 51°33.351 2°55.706 -999 -999 -999 -999 -999
2010-04-06 09:53:30 51°33.352 2°55.705 -999 -999 -999 -999 -999
2010-04-06 09:53:40 51°33.353 2°55.703 -999 -999 -999 -999 -999
2010-04-06 09:53:50 51°33.355 2°55.702 -999 -999 -999 -999 -999
2010-04-06 09:54:00 51°33.356 2°55.7 -999 -999 -999 -999 -999
2010-04-06 09:54:10 51°33.358 2°55.699 -999 -999 -999 -999 -999
2010-04-06 09:54:20 51°33.359 2°55.697 -999 -999 -999 -999 -999
2010-04-06 09:54:30 51°33.36 2°55.696 -999 -999 -999 -999 -999
2010-04-06 09:54:40 51°33.362 2°55.695 -999 -999 -999 -999 -999
2010-04-06 09:54:50 51°33.363 2°55.693 -999 -999 -999 -999 -999
2010-04-06 09:55:00 51°33.364 2°55.692 -999 -999 -999 -999 -999
2010-04-06 09:55:10 51°33.366 2°55.69 -999 -999 -999 -999 -999
2010-04-06 09:55:20 51°33.367 2°55.689 -999 -999 -999 -999 -999
2010-04-06 09:55:30 51°33.368 2°55.687 -999 -999 -999 -999 -999
2010-04-06 09:55:40 51°33.37 2°55.686 -999 -999 -999 -999 -999
2010-04-06 09:55:50 51°33.371 2°55.685 -999 -999 -999 -999 -999
2010-04-06 09:56:00 51°33.372 2°55.683 -999 -999 -999 -999 -999
2010-04-06 09:56:10 51°33.373 2°55.682 -999 -999 -999 -999 -999
2010-04-06 09:56:20 51°33.375 2°55.68 -999 -999 -999 -999 -999
2010-04-06 09:56:30 51°33.376 2°55.679 -999 -999 -999 -999 -999
2010-04-06 09:56:40 51°33.377 2°55.677 -999 -999 -999 -999 -999
2010-04-06 09:56:50 51°33.379 2°55.676 -999 -999 -999 -999 -999
2010-04-06 09:57:00 51°33.38 2°55.674 -999 -999 -999 -999 -999
2010-04-06 09:57:10 51°33.381 2°55.673 -999 -999 -999 -999 -999
2010-04-06 09:57:20 51°33.382 2°55.671 -999 -999 -999 -999 -999
2010-04-06 09:57:30 51°33.384 2°55.67 -999 -999 -999 -999 -999
2010-04-06 09:57:40 51°33.385 2°55.668 -999 -999 -999 -999 -999
2010-04-06 09:57:50 51°33.386 2°55.666 -999 -999 -999 -999 -999
2010-04-06 09:58:00 51°33.387 2°55.664 -999 -999 -999 -999 -999
2010-04-06 09:58:10 51°33.389 2°55.663 -999 -999 -999 -999 -999
2010-04-06 09:58:20 51°33.39 2°55.661 -999 -999 -999 -999 -999
2010-04-06 09:58:30 51°33.391 2°55.659 -999 -999 -999 -999 -999
2010-04-06 09:58:40 51°33.393 2°55.658 -999 -999 -999 -999 -999
2010-04-06 09:58:50 51°33.394 2°55.656 -999 -999 -999 -999 -999
2010-04-06 09:59:00 51°33.395 2°55.654 -999 -999 -999 -999 -999
2010-04-06 09:59:10 51°33.396 2°55.653 -999 -999 -999 -999 -999
2010-04-06 09:59:20 51°33.397 2°55.651 -999 -999 -999 -999 -999
2010-04-06 09:59:30 51°33.399 2°55.649 -999 -999 -999 -999 -999
2010-04-06 09:59:40 51°33.4 2°55.647 -999 -999 -999 -999 -999
2010-04-06 09:59:50 51°33.401 2°55.645 -999 -999 -999 -999 -999
2010-04-06 10:00:00 51°33.402 2°55.643 -999 -999 -999 -999 -999
2010-04-06 10:00:10 51°33.404 2°55.641 -999 -999 -999 -999 -999
2010-04-06 10:00:20 51°33.405 2°55.64 -999 -999 -999 -999 -999
2010-04-06 10:00:30 51°33.406 2°55.638 -999 -999 -999 -999 -999
2010-04-06 10:00:40 51°33.407 2°55.636 -999 -999 -999 -999 -999
2010-04-06 10:00:50 51°33.408 2°55.634 -999 -999 -999 -999 -999
2010-04-06 10:01:00 51°33.41 2°55.632 -999 -999 -999 -999 -999
2010-04-06 10:01:10 51°33.411 2°55.629 -999 -999 -999 -999 -999
2010-04-06 10:01:20 51°33.412 2°55.627 -999 -999 -999 -999 -999
2010-04-06 10:01:30 51°33.414 2°55.625 -999 -999 -999 -999 -999
2010-04-06 10:01:40 51°33.415 2°55.623 -999 -999 -999 -999 -999
2010-04-06 10:01:50 51°33.417 2°55.621 -999 -999 -999 -999 -999
2010-04-06 10:02:00 51°33.418 2°55.619 -999 -999 -999 -999 -999
2010-04-06 10:02:10 51°33.419 2°55.617 -999 -999 -999 -999 -999
2010-04-06 10:02:20 51°33.421 2°55.615 -999 -999 -999 -999 -999
2010-04-06 10:02:30 51°33.422 2°55.612 -999 -999 -999 -999 -999
2010-04-06 10:02:40 51°33.424 2°55.61 -999 -999 -999 -999 -999
2010-04-06 10:02:50 51°33.425 2°55.608 -999 -999 -999 -999 -999
2010-04-06 10:03:00 51°33.426 2°55.606 -999 -999 -999 -999 -999
2010-04-06 10:03:10 51°33.428 2°55.604 -999 -999 -999 -999 -999
2010-04-06 10:03:20 51°33.429 2°55.602 -999 -999 -999 -999 -999
2010-04-06 10:03:30 51°33.43 2°55.6 -999 -999 -999 -999 -999
2010-04-06 10:03:40 51°33.432 2°55.598 -999 -999 -999 -999 -999
2010-04-06 10:03:50 51°33.433 2°55.596 -999 -999 -999 -999 -999
2010-04-06 10:04:00 51°33.434 2°55.594 -999 -999 -999 -999 -999
2010-04-06 10:04:10 51°33.435 2°55.592 -999 -999 -999 -999 -999
2010-04-06 10:04:20 51°33.437 2°55.59 -999 -999 -999 -999 -999
2010-04-06 10:04:30 51°33.438 2°55.588 -999 -999 -999 -999 -999
2010-04-06 10:04:40 51°33.44 2°55.586 -999 -999 -999 -999 -999
2010-04-06 10:04:50 51°33.441 2°55.584 -999 -999 -999 -999 -999
2010-04-06 10:05:00 51°33.442 2°55.582 -999 -999 -999 -999 -999
2010-04-06 10:05:10 51°33.443 2°55.581 -999 -999 -999 -999 -999
2010-04-06 10:05:20 51°33.445 2°55.579 -999 -999 -999 -999 -999
2010-04-06 10:05:30 51°33.447 2°55.581 -999 -999 -999 -999 -999
2010-04-06 10:05:40 51°33.449 2°55.585 -999 -999 -999 -999 -999
2010-04-06 10:05:50 51°33.452 2°55.591 -999 -999 -999 -999 -999
2010-04-06 10:06:00 51°33.456 2°55.597 -999 -999 -999 -999 -999
2010-04-06 10:06:10 51°33.462 2°55.603 -999 -999 -999 -999 -999
2010-04-06 10:06:20 51°33.47 2°55.607 -999 -999 -999 -999 -999
2010-04-06 10:06:30 51°33.478 2°55.609 -999 -999 -999 -999 -999
2010-04-06 10:06:40 51°33.488 2°55.608 -999 -999 -999 -999 -999
2010-04-06 10:06:50 51°33.498 2°55.603 -999 -999 -999 -999 -999
2010-04-06 10:07:00 51°33.508 2°55.594 -999 -999 -999 -999 -999
2010-04-06 10:07:10 51°33.516 2°55.583 -999 -999 -999 -999 -999
2010-04-06 10:07:20 51°33.524 2°55.569 -999 -999 -999 -999 -999
2010-04-06 10:07:30 51°33.531 2°55.553 -999 -999 -999 -999 -999
2010-04-06 10:07:40 51°33.537 2°55.535 -999 -999 -999 -999 -999
2010-04-06 10:07:50 51°33.543 2°55.516 -999 -999 -999 -999 -999
2010-04-06 10:08:00 51°33.548 2°55.498 -999 -999 -999 -999 -999
2010-04-06 10:08:10 51°33.552 2°55.479 -999 -999 -999 -999 -999
2010-04-06 10:08:20 51°33.557 2°55.459 -999 -999 -999 -999 -999
2010-04-06 10:08:30 51°33.56 2°55.443 -999 -999 -999 -999 -999
2010-04-06 10:08:40 51°33.563 2°55.425 -999 -999 -999 -999 -999
2010-04-06 10:08:50 51°33.566 2°55.407 -999 -999 -999 -999 -999
2010-04-06 10:09:00 51°33.569 2°55.39 -999 -999 -999 -999 -999
2010-04-06 10:09:10 51°33.571 2°55.373 -999 -999 -999 -999 -999
2010-04-06 10:09:20 51°33.573 2°55.356 -999 -999 -999 -999 -999
2010-04-06 10:09:30 51°33.575 2°55.339 -999 -999 -999 -999 -999
2010-04-06 10:09:40 51°33.577 2°55.323 -999 -999 -999 -999 -999
2010-04-06 10:09:50 51°33.578 2°55.307 -999 -999 -999 -999 -999
2010-04-06 10:10:00 51°33.579 2°55.293 -999 -999 -999 -999 -999
2010-04-06 10:10:10 51°33.58 2°55.278 -999 -999 -999 -999 -999
2010-04-06 10:10:20 51°33.581 2°55.265 -999 -999 -999 -999 -999
2010-04-06 10:10:30 51°33.582 2°55.252 -999 -999 -999 -999 -999
2010-04-06 10:10:40 51°33.583 2°55.238 -999 -999 -999 -999 -999
2010-04-06 10:10:50 51°33.584 2°55.224 -999 -999 -999 -999 -999
2010-04-06 10:11:00 51°33.587 2°55.209 -999 -999 -999 -999 -999
2010-04-06 10:11:10 51°33.591 2°55.195 -999 -999 -999 -999 -999
2010-04-06 10:11:20 51°33.597 2°55.18 -999 -999 -999 -999 -999
2010-04-06 10:11:30 51°33.604 2°55.169 -999 -999 -999 -999 -999
2010-04-06 10:11:40 51°33.614 2°55.157 -999 -999 -999 -999 -999
2010-04-06 10:11:50 51°33.623 2°55.151 -999 -999 -999 -999 -999
2010-04-06 10:12:00 51°33.634 2°55.148 -999 -999 -999 -999 -999
2010-04-06 10:12:10 51°33.645 2°55.148 -999 -999 -999 -999 -999
2010-04-06 10:12:20 51°33.655 2°55.151 -999 -999 -999 -999 -999
2010-04-06 10:12:30 51°33.665 2°55.159 -999 -999 -999 -999 -999
2010-04-06 10:12:40 51°33.672 2°55.169 -999 -999 -999 -999 -999
2010-04-06 10:12:50 51°33.678 2°55.181 -999 -999 -999 -999 -999
2010-04-06 10:13:00 51°33.682 2°55.195 -999 -999 -999 -999 -999
2010-04-06 10:13:10 51°33.684 2°55.209 -999 -999 -999 -999 -999
2010-04-06 10:13:20 51°33.684 2°55.224 -999 -999 -999 -999 -999
2010-04-06 10:13:30 51°33.682 2°55.239 -999 -999 -999 -999 -999
2010-04-06 10:13:40 51°33.679 2°55.255 -999 -999 -999 -999 -999
2010-04-06 10:13:50 51°33.674 2°55.271 -999 -999 -999 -999 -999
2010-04-06 10:14:00 51°33.668 2°55.287 -999 -999 -999 -999 -999
2010-04-06 10:14:10 51°33.662 2°55.302 -999 -999 -999 -999 -999
2010-04-06 10:14:20 51°33.654 2°55.319 -999 -999 -999 -999 -999
2010-04-06 10:14:30 51°33.647 2°55.336 -999 -999 -999 -999 -999
2010-04-06 10:14:40 51°33.639 2°55.353 -999 -999 -999 -999 -999
2010-04-06 10:14:50 51°33.632 2°55.371 -999 -999 -999 -999 -999
2010-04-06 10:15:00 51°33.624 2°55.389 -999 -999 -999 -999 -999
2010-04-06 10:15:10 51°33.616 2°55.408 -999 -999 -999 -999 -999
2010-04-06 10:15:20 51°33.608 2°55.427 -999 -999 -999 -999 -999
2010-04-06 10:15:30 51°33.599 2°55.445 -999 -999 -999 -999 -999
2010-04-06 10:15:40 51°33.59 2°55.463 -999 -999 -999 -999 -999
2010-04-06 10:15:50 51°33.581 2°55.481 -999 -999 -999 -999 -999
2010-04-06 10:16:00 51°33.572 2°55.499 -999 -999 -999 -999 -999
2010-04-06 10:16:10 51°33.562 2°55.517 -999 -999 -999 -999 -999
2010-04-06 10:16:20 51°33.553 2°55.535 -999 -999 -999 -999 -999
2010-04-06 10:16:30 51°33.543 2°55.552 -999 -999 -999 -999 -999
2010-04-06 10:16:40 51°33.533 2°55.57 -999 -999 -999 -999 -999
2010-04-06 10:16:50 51°33.523 2°55.588 -999 -999 -999 -999 -999
2010-04-06 10:17:00 51°33.513 2°55.606 -999 -999 -999 -999 -999
2010-04-06 10:17:10 51°33.503 2°55.624 -999 -999 -999 -999 -999
2010-04-06 10:17:20 51°33.493 2°55.642 -999 -999 -999 -999 -999
2010-04-06 10:17:30 51°33.483 2°55.66 -999 -999 -999 -999 -999
2010-04-06 10:17:40 51°33.473 2°55.678 -999 -999 -999 -999 -999
2010-04-06 10:17:50 51°33.463 2°55.695 -999 -999 -999 -999 -999
2010-04-06 10:18:00 51°33.453 2°55.713 -999 -999 -999 -999 -999
2010-04-06 10:18:10 51°33.443 2°55.731 -999 -999 -999 -999 -999
2010-04-06 10:18:20 51°33.432 2°55.749 -999 -999 -999 -999 -999
2010-04-06 10:18:30 51°33.422 2°55.767 -999 -999 -999 -999 -999
2010-04-06 10:18:40 51°33.412 2°55.784 -999 -999 -999 -999 -999
2010-04-06 10:18:50 51°33.403 2°55.8 -999 -999 -999 -999 -999
2010-04-06 10:19:00 51°33.395 2°55.814 -999 -999 -999 -999 -999
2010-04-06 10:19:10 51°33.387 2°55.828 -999 -999 -999 -999 -999
2010-04-06 10:19:20 51°33.379 2°55.841 -999 -999 -999 -999 -999
2010-04-06 10:19:30 51°33.372 2°55.852 -999 -999 -999 -999 -999
2010-04-06 10:19:40 51°33.365 2°55.863 -999 -999 -999 -999 -999
2010-04-06 10:19:50 51°33.359 2°55.874 -999 -999 -999 -999 -999
2010-04-06 10:20:00 51°33.353 2°55.883 -999 -999 -999 -999 -999
2010-04-06 10:20:10 51°33.347 2°55.892 -999 -999 -999 -999 -999
2010-04-06 10:20:20 51°33.341 2°55.902 -999 -999 -999 -999 -999
2010-04-06 10:20:30 51°33.336 2°55.909 -999 -999 -999 -999 -999
2010-04-06 10:20:40 51°33.331 2°55.918 -999 -999 -999 -999 -999
2010-04-06 10:20:50 51°33.327 2°55.925 -999 -999 -999 -999 -999
2010-04-06 10:21:00 51°33.322 2°55.932 -999 -999 -999 -999 -999
2010-04-06 10:21:10 51°33.318 2°55.939 -999 -999 -999 -999 -999
2010-04-06 10:21:20 51°33.313 2°55.947 -999 -999 -999 -999 -999
2010-04-06 10:21:30 51°33.309 2°55.953 -999 -999 -999 -999 -999
2010-04-06 10:21:40 51°33.306 2°55.959 -999 -999 -999 -999 -999
2010-04-06 10:21:50 51°33.302 2°55.965 -999 -999 -999 -999 -999
2010-04-06 10:22:00 51°33.298 2°55.971 -999 -999 -999 -999 -999
2010-04-06 10:22:10 51°33.295 2°55.977 -999 -999 -999 -999 -999
2010-04-06 10:22:20 51°33.291 2°55.984 -999 -999 -999 -999 -999
2010-04-06 10:22:30 51°33.289 2°55.989 -999 -999 -999 -999 -999
2010-04-06 10:22:40 51°33.285 2°55.995 -999 -999 -999 -999 -999
2010-04-06 10:22:50 51°33.282 2°56 -999 -999 -999 -999 -999
2010-04-06 10:23:00 51°33.279 2°56.005 -999 -999 -999 -999 -999
2010-04-06 10:23:10 51°33.276 2°56.01 -999 -999 -999 -999 -999
2010-04-06 10:23:20 51°33.273 2°56.015 -999 -999 -999 -999 -999
2010-04-06 10:23:30 51°33.27 2°56.019 -999 -999 -999 -999 -999
2010-04-06 10:23:40 51°33.266 2°56.023 -999 -999 -999 -999 -999
2010-04-06 10:23:50 51°33.263 2°56.028 -999 -999 -999 -999 -999
2010-04-06 10:24:00 51°33.26 2°56.032 -999 -999 -999 -999 -999
2010-04-06 10:24:10 51°33.257 2°56.036 -999 -999 -999 -999 -999
2010-04-06 10:24:20 51°33.254 2°56.04 -999 -999 -999 -999 -999
2010-04-06 10:24:30 51°33.251 2°56.043 -999 -999 -999 -999 -999
2010-04-06 10:24:40 51°33.248 2°56.048 -999 -999 -999 -999 -999
2010-04-06 10:24:50 51°33.245 2°56.051 -999 -999 -999 -999 -999
2010-04-06 10:25:00 51°33.243 2°56.055 -999 -999 -999 -999 -999
2010-04-06 10:25:10 51°33.24 2°56.058 -999 -999 -999 -999 -999
2010-04-06 10:25:20 51°33.237 2°56.062 -999 -999 -999 -999 -999
2010-04-06 10:25:30 51°33.234 2°56.065 -999 -999 -999 -999 -999
2010-04-06 10:25:40 51°33.231 2°56.069 -999 -999 -999 -999 -999
2010-04-06 10:25:50 51°33.229 2°56.072 -999 -999 -999 -999 -999
2010-04-06 10:26:00 51°33.226 2°56.075 -999 -999 -999 -999 -999
2010-04-06 10:26:10 51°33.223 2°56.078 -999 -999 -999 -999 -999
2010-04-06 10:26:20 51°33.221 2°56.081 -999 -999 -999 -999 -999
2010-04-06 10:26:30 51°33.218 2°56.084 -999 -999 -999 -999 -999
2010-04-06 10:26:40 51°33.215 2°56.087 -999 -999 -999 -999 -999
2010-04-06 10:26:50 51°33.212 2°56.09 -999 -999 -999 -999 -999
2010-04-06 10:27:00 51°33.209 2°56.093 -999 -999 -999 -999 -999
2010-04-06 10:27:10 51°33.206 2°56.096 -999 -999 -999 -999 -999
2010-04-06 10:27:20 51°33.203 2°56.099 -999 -999 -999 -999 -999
2010-04-06 10:27:30 51°33.2 2°56.101 -999 -999 -999 -999 -999
2010-04-06 10:27:40 51°33.197 2°56.104 -999 -999 -999 -999 -999
2010-04-06 10:27:50 51°33.194 2°56.107 -999 -999 -999 -999 -999
2010-04-06 10:28:00 51°33.191 2°56.109 -999 -999 -999 -999 -999
2010-04-06 10:28:10 51°33.188 2°56.112 -999 -999 -999 -999 -999
2010-04-06 10:28:20 51°33.185 2°56.114 -999 -999 -999 -999 -999
2010-04-06 10:28:30 51°33.181 2°56.117 -999 -999 -999 -999 -999
2010-04-06 10:28:40 51°33.179 2°56.12 -999 -999 -999 -999 -999
2010-04-06 10:28:50 51°33.175 2°56.123 -999 -999 -999 -999 -999
2010-04-06 10:29:00 51°33.172 2°56.126 -999 -999 -999 -999 -999
2010-04-06 10:29:10 51°33.169 2°56.129 -999 -999 -999 -999 -999
2010-04-06 10:29:20 51°33.166 2°56.132 -999 -999 -999 -999 -999
2010-04-06 10:29:30 51°33.164 2°56.135 -999 -999 -999 -999 -999
2010-04-06 10:29:40 51°33.161 2°56.138 -999 -999 -999 -999 -999
2010-04-06 10:29:50 51°33.158 2°56.141 -999 -999 -999 -999 -999
2010-04-06 10:30:00 51°33.155 2°56.144 -999 -999 -999 -999 -999
2010-04-06 10:30:10 51°33.152 2°56.147 -999 -999 -999 -999 -999
2010-04-06 10:30:20 51°33.149 2°56.151 -999 -999 -999 -999 -999
2010-04-06 10:30:30 51°33.147 2°56.154 -999 -999 -999 -999 -999
2010-04-06 10:30:40 51°33.144 2°56.157 -999 -999 -999 -999 -999
2010-04-06 10:30:50 51°33.141 2°56.16 -999 -999 -999 -999 -999
2010-04-06 10:31:00 51°33.139 2°56.163 -999 -999 -999 -999 -999
2010-04-06 10:31:10 51°33.136 2°56.166 -999 -999 -999 -999 -999
2010-04-06 10:31:20 51°33.133 2°56.17 -999 -999 -999 -999 -999
2010-04-06 10:31:30 51°33.13 2°56.173 -999 -999 -999 -999 -999
2010-04-06 10:31:40 51°33.127 2°56.176 -999 -999 -999 -999 -999
2010-04-06 10:31:50 51°33.124 2°56.179 -999 -999 -999 -999 -999
2010-04-06 10:32:00 51°33.122 2°56.183 -999 -999 -999 -999 -999
2010-04-06 10:32:10 51°33.119 2°56.186 -999 -999 -999 -999 -999
2010-04-06 10:32:20 51°33.116 2°56.19 -999 -999 -999 -999 -999
2010-04-06 10:32:30 51°33.113 2°56.193 -999 -999 -999 -999 -999
2010-04-06 10:32:40 51°33.11 2°56.196 -999 -999 -999 -999 -999
2010-04-06 10:32:50 51°33.107 2°56.199 -999 -999 -999 -999 -999
2010-04-06 10:33:00 51°33.105 2°56.203 -999 -999 -999 -999 -999
2010-04-06 10:33:10 51°33.102 2°56.206 -999 -999 -999 -999 -999
2010-04-06 10:33:20 51°33.099 2°56.21 -999 -999 -999 -999 -999
2010-04-06 10:33:30 51°33.096 2°56.213 -999 -999 -999 -999 -999
2010-04-06 10:33:40 51°33.093 2°56.216 -999 -999 -999 -999 -999
2010-04-06 10:33:50 51°33.09 2°56.22 -999 -999 -999 -999 -999
2010-04-06 10:34:00 51°33.087 2°56.223 -999 -999 -999 -999 -999
2010-04-06 10:34:10 51°33.084 2°56.226 -999 -999 -999 -999 -999
2010-04-06 10:34:20 51°33.081 2°56.23 -999 -999 -999 -999 -999
2010-04-06 10:34:30 51°33.078 2°56.233 -999 -999 -999 -999 -999
2010-04-06 10:34:40 51°33.074 2°56.237 -999 -999 -999 -999 -999
2010-04-06 10:34:50 51°33.071 2°56.24 -999 -999 -999 -999 -999
2010-04-06 10:35:00 51°33.069 2°56.244 -999 -999 -999 -999 -999
2010-04-06 10:35:10 51°33.066 2°56.248 -999 -999 -999 -999 -999
2010-04-06 10:35:20 51°33.063 2°56.252 -999 -999 -999 -999 -999
2010-04-06 10:35:30 51°33.06 2°56.256 -999 -999 -999 -999 -999
2010-04-06 10:35:40 51°33.057 2°56.259 -999 -999 -999 -999 -999
2010-04-06 10:35:50 51°33.055 2°56.264 -999 -999 -999 -999 -999
2010-04-06 10:36:00 51°33.052 2°56.268 -999 -999 -999 -999 -999
2010-04-06 10:36:10 51°33.049 2°56.272 -999 -999 -999 -999 -999
2010-04-06 10:36:20 51°33.047 2°56.276 -999 -999 -999 -999 -999
2010-04-06 10:36:30 51°33.044 2°56.281 -999 -999 -999 -999 -999
2010-04-06 10:36:40 51°33.041 2°56.285 -999 -999 -999 -999 -999
2010-04-06 10:36:50 51°33.039 2°56.29 -999 -999 -999 -999 -999
2010-04-06 10:37:00 51°33.036 2°56.295 -999 -999 -999 -999 -999
2010-04-06 10:37:10 51°33.033 2°56.299 -999 -999 -999 -999 -999
2010-04-06 10:37:20 51°33.031 2°56.304 -999 -999 -999 -999 -999
2010-04-06 10:37:30 51°33.028 2°56.309 -999 -999 -999 -999 -999
2010-04-06 10:37:40 51°33.026 2°56.314 -999 -999 -999 -999 -999
2010-04-06 10:37:50 51°33.023 2°56.319 -999 -999 -999 -999 -999
2010-04-06 10:38:00 51°33.021 2°56.324 -999 -999 -999 -999 -999
2010-04-06 10:38:10 51°33.018 2°56.329 -999 -999 -999 -999 -999
2010-04-06 10:38:20 51°33.016 2°56.334 -999 -999 -999 -999 -999
2010-04-06 10:38:30 51°33.013 2°56.34 -999 -999 -999 -999 -999
2010-04-06 10:38:40 51°33.011 2°56.345 -999 -999 -999 -999 -999
2010-04-06 10:38:50 51°33.009 2°56.35 -999 -999 -999 -999 -999
2010-04-06 10:39:00 51°33.006 2°56.356 -999 -999 -999 -999 -999
2010-04-06 10:39:10 51°33.004 2°56.361 -999 -999 -999 -999 -999
2010-04-06 10:39:20 51°33.002 2°56.367 -999 -999 -999 -999 -999
2010-04-06 10:39:30 51°33 2°56.372 -999 -999 -999 -999 -999
2010-04-06 10:39:40 51°32.997 2°56.378 -999 -999 -999 -999 -999
2010-04-06 10:39:50 51°32.995 2°56.383 -999 -999 -999 -999 -999
2010-04-06 10:40:00 51°32.993 2°56.39 -999 -999 -999 -999 -999
2010-04-06 10:40:10 51°32.991 2°56.395 -999 -999 -999 -999 -999
2010-04-06 10:40:20 51°32.988 2°56.4 -999 -999 -999 -999 -999
2010-04-06 10:40:30 51°32.986 2°56.405 -999 -999 -999 -999 -999
2010-04-06 10:40:40 51°32.983 2°56.411 -999 -999 -999 -999 -999
2010-04-06 10:40:50 51°32.98 2°56.416 -999 -999 -999 -999 -999
2010-04-06 10:41:00 51°32.977 2°56.422 -999 -999 -999 -999 -999
2010-04-06 10:41:10 51°32.975 2°56.427 -999 -999 -999 -999 -999
2010-04-06 10:41:20 51°32.972 2°56.433 -999 -999 -999 -999 -999
2010-04-06 10:41:30 51°32.97 2°56.438 -999 -999 -999 -999 -999
2010-04-06 10:41:40 51°32.968 2°56.444 -999 -999 -999 -999 -999
2010-04-06 10:41:50 51°32.965 2°56.449 -999 -999 -999 -999 -999
2010-04-06 10:42:00 51°32.963 2°56.454 -999 -999 -999 -999 -999
2010-04-06 10:42:10 51°32.961 2°56.46 -999 -999 -999 -999 -999
2010-04-06 10:42:20 51°32.959 2°56.465 -999 -999 -999 -999 -999
2010-04-06 10:42:30 51°32.958 2°56.471 -999 -999 -999 -999 -999
2010-04-06 10:42:40 51°32.957 2°56.476 -999 -999 -999 -999 -999
2010-04-06 10:42:50 51°32.956 2°56.481 -999 -999 -999 -999 -999
2010-04-06 10:43:00 51°32.956 2°56.487 -999 -999 -999 -999 -999
2010-04-06 10:43:10 51°32.957 2°56.492 -999 -999 -999 -999 -999
2010-04-06 10:43:20 51°32.957 2°56.497 -999 -999 -999 -999 -999
2010-04-06 10:43:30 51°32.958 2°56.502 -999 -999 -999 -999 -999
2010-04-06 10:43:40 51°32.96 2°56.508 -999 -999 -999 -999 -999
2010-04-06 10:43:50 51°32.962 2°56.512 -999 -999 -999 -999 -999
2010-04-06 10:44:00 51°32.964 2°56.517 -999 -999 -999 -999 -999
2010-04-06 10:44:10 51°32.967 2°56.521 -999 -999 -999 -999 -999
2010-04-06 10:44:20 51°32.97 2°56.525 -999 -999 -999 -999 -999
2010-04-06 10:44:30 51°32.973 2°56.528 -999 -999 -999 -999 -999
2010-04-06 10:44:40 51°32.977 2°56.531 -999 -999 -999 -999 -999
2010-04-06 10:44:50 51°32.98 2°56.532 -999 -999 -999 -999 -999
2010-04-06 10:45:00 51°32.984 2°56.533 -999 -999 -999 -999 -999
2010-04-06 10:45:10 51°32.987 2°56.534 -999 -999 -999 -999 -999
2010-04-06 10:45:20 51°32.991 2°56.535 -999 -999 -999 -999 -999
2010-04-06 10:45:30 51°32.994 2°56.535 -999 -999 -999 -999 -999
2010-04-06 10:45:40 51°32.997 2°56.535 -999 -999 -999 -999 -999
2010-04-06 10:45:50 51°33 2°56.535 -999 -999 -999 -999 -999
2010-04-06 10:46:00 51°33.003 2°56.535 -999 -999 -999 -999 -999
2010-04-06 10:46:10 51°33.005 2°56.535 -999 -999 -999 -999 -999
2010-04-06 10:46:20 51°33.008 2°56.535 -999 -999 -999 -999 -999
2010-04-06 10:46:30 51°33.011 2°56.535 -999 -999 -999 -999 -999
2010-04-06 10:46:40 51°33.013 2°56.535 -999 -999 -999 -999 -999
2010-04-06 10:46:50 51°33.015 2°56.535 -999 -999 -999 -999 -999
2010-04-06 10:47:00 51°33.018 2°56.534 -999 -999 -999 -999 -999
2010-04-06 10:47:10 51°33.02 2°56.535 -999 -999 -999 -999 -999
2010-04-06 10:47:20 51°33.022 2°56.534 -999 -999 -999 -999 -999
2010-04-06 10:47:30 51°33.024 2°56.534 -999 -999 -999 -999 -999
2010-04-06 10:47:40 51°33.025 2°56.534 -999 -999 -999 -999 -999
2010-04-06 10:47:50 51°33.027 2°56.533 -999 -999 -999 -999 -999
2010-04-06 10:48:00 51°33.029 2°56.533 -999 -999 -999 -999 -999
2010-04-06 10:48:10 51°33.031 2°56.533 -999 -999 -999 -999 -999
2010-04-06 10:48:20 51°33.032 2°56.532 -999 -999 -999 -999 -999
2010-04-06 10:48:30 51°33.034 2°56.532 -999 -999 -999 -999 -999
2010-04-06 10:48:40 51°33.035 2°56.532 -999 -999 -999 -999 -999
2010-04-06 10:48:50 51°33.036 2°56.531 -999 -999 -999 -999 -999
2010-04-06 10:49:00 51°33.038 2°56.531 -999 -999 -999 -999 -999
2010-04-06 10:49:10 51°33.039 2°56.53 -999 -999 -999 -999 -999
2010-04-06 10:49:20 51°33.04 2°56.53 -999 -999 -999 -999 -999
2010-04-06 10:49:30 51°33.041 2°56.529 -999 -999 -999 -999 -999
2010-04-06 10:49:40 51°33.042 2°56.529 -999 -999 -999 -999 -999
2010-04-06 10:49:50 51°33.043 2°56.528 -999 -999 -999 -999 -999
2010-04-06 10:50:00 51°33.044 2°56.528 -999 -999 -999 -999 -999
2010-04-06 10:50:10 51°33.045 2°56.527 -999 -999 -999 -999 -999
2010-04-06 10:50:20 51°33.046 2°56.526 -999 -999 -999 -999 -999
2010-04-06 10:50:30 51°33.046 2°56.526 -999 -999 -999 -999 -999
2010-04-06 10:50:40 51°33.047 2°56.525 -999 -999 -999 -999 -999
2010-04-06 10:50:50 51°33.047 2°56.524 -999 -999 -999 -999 -999
2010-04-06 10:51:00 51°33.048 2°56.523 -999 -999 -999 -999 -999
2010-04-06 10:51:10 51°33.049 2°56.523 -999 -999 -999 -999 -999
2010-04-06 10:51:20 51°33.049 2°56.522 -999 -999 -999 -999 -999
2010-04-06 10:51:30 51°33.05 2°56.52 -999 -999 -999 -999 -999
2010-04-06 10:51:40 51°33.05 2°56.519 -999 -999 -999 -999 -999
2010-04-06 10:51:50 51°33.051 2°56.519 -999 -999 -999 -999 -999
2010-04-06 10:52:00 51°33.051 2°56.517 -999 -999 -999 -999 -999
2010-04-06 10:52:10 51°33.052 2°56.516 -999 -999 -999 -999 -999
2010-04-06 10:52:20 51°33.052 2°56.515 -999 -999 -999 -999 -999
2010-04-06 10:52:30 51°33.052 2°56.514 -999 -999 -999 -999 -999
2010-04-06 10:52:40 51°33.053 2°56.513 -999 -999 -999 -999 -999
2010-04-06 10:52:50 51°33.054 2°56.511 -999 -999 -999 -999 -999
2010-04-06 10:53:00 51°33.054 2°56.51 -999 -999 -999 -999 -999
2010-04-06 10:53:10 51°33.054 2°56.509 -999 -999 -999 -999 -999
2010-04-06 10:53:20 51°33.054 2°56.507 -999 -999 -999 -999 -999
2010-04-06 10:53:30 51°33.055 2°56.506 -999 -999 -999 -999 -999
2010-04-06 10:53:40 51°33.055 2°56.505 -999 -999 -999 -999 -999
2010-04-06 10:53:50 51°33.056 2°56.503 -999 -999 -999 -999 -999
2010-04-06 10:54:00 51°33.056 2°56.502 -999 -999 -999 -999 -999
2010-04-06 10:54:10 51°33.057 2°56.5 -999 -999 -999 -999 -999
2010-04-06 10:54:20 51°33.057 2°56.499 -999 -999 -999 -999 -999
2010-04-06 10:54:30 51°33.057 2°56.498 -999 -999 -999 -999 -999
2010-04-06 10:54:40 51°33.057 2°56.496 -999 -999 -999 -999 -999
2010-04-06 10:54:50 51°33.058 2°56.495 -999 -999 -999 -999 -999
2010-04-06 10:55:00 51°33.058 2°56.493 -999 -999 -999 -999 -999
2010-04-06 10:55:10 51°33.059 2°56.491 -999 -999 -999 -999 -999
2010-04-06 10:55:20 51°33.059 2°56.489 -999 -999 -999 -999 -999
2010-04-06 10:55:30 51°33.059 2°56.488 -999 -999 -999 -999 -999
2010-04-06 10:55:40 51°33.06 2°56.486 -999 -999 -999 -999 -999
2010-04-06 10:55:50 51°33.06 2°56.484 -999 -999 -999 -999 -999
2010-04-06 10:56:00 51°33.061 2°56.483 -999 -999 -999 -999 -999
2010-04-06 10:56:10 51°33.061 2°56.481 -999 -999 -999 -999 -999
2010-04-06 10:56:20 51°33.061 2°56.479 -999 -999 -999 -999 -999
2010-04-06 10:56:30 51°33.061 2°56.477 -999 -999 -999 -999 -999
2010-04-06 10:56:40 51°33.061 2°56.475 -999 -999 -999 -999 -999
2010-04-06 10:56:50 51°33.062 2°56.474 -999 -999 -999 -999 -999
2010-04-06 10:57:00 51°33.062 2°56.472 -999 -999 -999 -999 -999
2010-04-06 10:57:10 51°33.062 2°56.47 -999 -999 -999 -999 -999
2010-04-06 10:57:20 51°33.062 2°56.468 -999 -999 -999 -999 -999
2010-04-06 10:57:30 51°33.063 2°56.466 -999 -999 -999 -999 -999
2010-04-06 10:57:40 51°33.063 2°56.464 -999 -999 -999 -999 -999
2010-04-06 10:57:50 51°33.063 2°56.462 -999 -999 -999 -999 -999
2010-04-06 10:58:00 51°33.063 2°56.459 -999 -999 -999 -999 -999
2010-04-06 10:58:10 51°33.063 2°56.457 -999 -999 -999 -999 -999
2010-04-06 10:58:20 51°33.064 2°56.455 -999 -999 -999 -999 -999
2010-04-06 10:58:30 51°33.064 2°56.453 -999 -999 -999 -999 -999
2010-04-06 10:58:40 51°33.064 2°56.451 -999 -999 -999 -999 -999
2010-04-06 10:58:50 51°33.064 2°56.448 -999 -999 -999 -999 -999
2010-04-06 10:59:00 51°33.064 2°56.446 -999 -999 -999 -999 -999
2010-04-06 10:59:10 51°33.064 2°56.443 -999 -999 -999 -999 -999
2010-04-06 10:59:20 51°33.065 2°56.441 -999 -999 -999 -999 -999
2010-04-06 10:59:30 51°33.065 2°56.439 -999 -999 -999 -999 -999
2010-04-06 10:59:40 51°33.065 2°56.436 -999 -999 -999 -999 -999
2010-04-06 10:59:50 51°33.065 2°56.434 -999 -999 -999 -999 -999
2010-04-06 11:00:00 51°33.065 2°56.431 -999 -999 -999 -999 -999
2010-04-06 11:00:10 51°33.065 2°56.429 -999 -999 -999 -999 -999
2010-04-06 11:00:20 51°33.065 2°56.426 -999 -999 -999 -999 -999
2010-04-06 11:00:30 51°33.065 2°56.424 -999 -999 -999 -999 -999
2010-04-06 11:00:40 51°33.065 2°56.421 -999 -999 -999 -999 -999
2010-04-06 11:00:50 51°33.065 2°56.418 -999 -999 -999 -999 -999
2010-04-06 11:01:00 51°33.066 2°56.415 -999 -999 -999 -999 -999
2010-04-06 11:01:10 51°33.066 2°56.413 -999 -999 -999 -999 -999
2010-04-06 11:01:20 51°33.066 2°56.41 -999 -999 -999 -999 -999
2010-04-06 11:01:30 51°33.066 2°56.407 -999 -999 -999 -999 -999
2010-04-06 11:01:40 51°33.066 2°56.404 -999 -999 -999 -999 -999
2010-04-06 11:01:50 51°33.066 2°56.401 -999 -999 -999 -999 -999
2010-04-06 11:02:00 51°33.066 2°56.398 -999 -999 -999 -999 -999
2010-04-06 11:02:10 51°33.066 2°56.396 -999 -999 -999 -999 -999
2010-04-06 11:02:20 51°33.066 2°56.393 -999 -999 -999 -999 -999
2010-04-06 11:02:30 51°33.066 2°56.39 -999 -999 -999 -999 -999
2010-04-06 11:02:40 51°33.066 2°56.387 -999 -999 -999 -999 -999
2010-04-06 11:02:50 51°33.066 2°56.384 -999 -999 -999 -999 -999
2010-04-06 11:03:00 51°33.066 2°56.381 -999 -999 -999 -999 -999
2010-04-06 11:03:10 51°33.066 2°56.378 -999 -999 -999 -999 -999
2010-04-06 11:03:20 51°33.066 2°56.375 -999 -999 -999 -999 -999
2010-04-06 11:03:30 51°33.066 2°56.372 -999 -999 -999 -999 -999
2010-04-06 11:03:40 51°33.066 2°56.369 -999 -999 -999 -999 -999
2010-04-06 11:03:50 51°33.066 2°56.366 -999 -999 -999 -999 -999
2010-04-06 11:04:00 51°33.066 2°56.363 -999 -999 -999 -999 -999
2010-04-06 11:04:10 51°33.065 2°56.359 -999 -999 -999 -999 -999
2010-04-06 11:04:20 51°33.065 2°56.356 -999 -999 -999 -999 -999
2010-04-06 11:04:30 51°33.065 2°56.353 -999 -999 -999 -999 -999
2010-04-06 11:04:40 51°33.065 2°56.35 -999 -999 -999 -999 -999
2010-04-06 11:04:50 51°33.064 2°56.347 -999 -999 -999 -999 -999
2010-04-06 11:05:00 51°33.064 2°56.344 -999 -999 -999 -999 -999
2010-04-06 11:05:10 51°33.064 2°56.341 -999 -999 -999 -999 -999
2010-04-06 11:05:20 51°33.064 2°56.338 -999 -999 -999 -999 -999
2010-04-06 11:05:30 51°33.064 2°56.334 -999 -999 -999 -999 -999
2010-04-06 11:05:40 51°33.064 2°56.331 -999 -999 -999 -999 -999
2010-04-06 11:05:50 51°33.064 2°56.328 -999 -999 -999 -999 -999
2010-04-06 11:06:00 51°33.064 2°56.325 -999 -999 -999 -999 -999
2010-04-06 11:06:10 51°33.063 2°56.322 -999 -999 -999 -999 -999
2010-04-06 11:06:20 51°33.063 2°56.318 -999 -999 -999 -999 -999
2010-04-06 11:06:30 51°33.063 2°56.315 -999 -999 -999 -999 -999
2010-04-06 11:06:40 51°33.063 2°56.312 -999 -999 -999 -999 -999
2010-04-06 11:06:50 51°33.062 2°56.309 -999 -999 -999 -999 -999
2010-04-06 11:07:00 51°33.062 2°56.305 -999 -999 -999 -999 -999
2010-04-06 11:07:10 51°33.062 2°56.302 -999 -999 -999 -999 -999
2010-04-06 11:07:20 51°33.061 2°56.298 -999 -999 -999 -999 -999
2010-04-06 11:07:30 51°33.061 2°56.295 -999 -999 -999 -999 -999
2010-04-06 11:07:40 51°33.061 2°56.292 -999 -999 -999 -999 -999
2010-04-06 11:07:50 51°33.06 2°56.289 -999 -999 -999 -999 -999
2010-04-06 11:08:00 51°33.06 2°56.285 -999 -999 -999 -999 -999
2010-04-06 11:08:10 51°33.06 2°56.282 -999 -999 -999 -999 -999
2010-04-06 11:08:20 51°33.059 2°56.278 -999 -999 -999 -999 -999
2010-04-06 11:08:30 51°33.059 2°56.275 -999 -999 -999 -999 -999
2010-04-06 11:08:40 51°33.059 2°56.271 -999 -999 -999 -999 -999
2010-04-06 11:08:50 51°33.059 2°56.268 -999 -999 -999 -999 -999
2010-04-06 11:09:00 51°33.058 2°56.264 -999 -999 -999 -999 -999
2010-04-06 11:09:10 51°33.058 2°56.261 -999 -999 -999 -999 -999
2010-04-06 11:09:20 51°33.058 2°56.257 -999 -999 -999 -999 -999
2010-04-06 11:09:30 51°33.057 2°56.254 -999 -999 -999 -999 -999
2010-04-06 11:09:40 51°33.057 2°56.25 -999 -999 -999 -999 -999
2010-04-06 11:09:50 51°33.057 2°56.247 -999 -999 -999 -999 -999
2010-04-06 11:10:00 51°33.057 2°56.243 -999 -999 -999 -999 -999
2010-04-06 11:10:10 51°33.057 2°56.24 -999 -999 -999 -999 -999
2010-04-06 11:10:20 51°33.056 2°56.237 -999 -999 -999 -999 -999
2010-04-06 11:10:30 51°33.056 2°56.233 -999 -999 -999 -999 -999
2010-04-06 11:10:40 51°33.055 2°56.23 -999 -999 -999 -999 -999
2010-04-06 11:10:50 51°33.055 2°56.226 -999 -999 -999 -999 -999
2010-04-06 11:11:00 51°33.055 2°56.223 -999 -999 -999 -999 -999
2010-04-06 11:11:10 51°33.055 2°56.22 -999 -999 -999 -999 -999
2010-04-06 11:11:20 51°33.054 2°56.216 -999 -999 -999 -999 -999
2010-04-06 11:11:30 51°33.054 2°56.213 -999 -999 -999 -999 -999
2010-04-06 11:11:40 51°33.054 2°56.209 -999 -999 -999 -999 -999
2010-04-06 11:11:50 51°33.053 2°56.206 -999 -999 -999 -999 -999
2010-04-06 11:12:00 51°33.053 2°56.202 -999 -999 -999 -999 -999
2010-04-06 11:12:10 51°33.052 2°56.199 -999 -999 -999 -999 -999
2010-04-06 11:12:20 51°33.052 2°56.195 -999 -999 -999 -999 -999
2010-04-06 11:12:30 51°33.052 2°56.192 -999 -999 -999 -999 -999
2010-04-06 11:12:40 51°33.051 2°56.188 -999 -999 -999 -999 -999
2010-04-06 11:12:50 51°33.051 2°56.185 -999 -999 -999 -999 -999
2010-04-06 11:13:00 51°33.051 2°56.181 -999 -999 -999 -999 -999
2010-04-06 11:13:10 51°33.051 2°56.178 -999 -999 -999 -999 -999
2010-04-06 11:13:20 51°33.05 2°56.174 -999 -999 -999 -999 -999
2010-04-06 11:13:30 51°33.05 2°56.171 -999 -999 -999 -999 -999
2010-04-06 11:13:40 51°33.049 2°56.167 -999 -999 -999 -999 -999
2010-04-06 11:13:50 51°33.049 2°56.163 -999 -999 -999 -999 -999
2010-04-06 11:14:00 51°33.048 2°56.16 -999 -999 -999 -999 -999
2010-04-06 11:14:10 51°33.048 2°56.156 -999 -999 -999 -999 -999
2010-04-06 11:14:20 51°33.047 2°56.153 -999 -999 -999 -999 -999
2010-04-06 11:14:30 51°33.047 2°56.149 -999 -999 -999 -999 -999
2010-04-06 11:14:40 51°33.047 2°56.145 -999 -999 -999 -999 -999
2010-04-06 11:14:50 51°33.046 2°56.142 -999 -999 -999 -999 -999
2010-04-06 11:15:00 51°33.045 2°56.138 -999 -999 -999 -999 -999
2010-04-06 11:15:10 51°33.045 2°56.134 -999 -999 -999 -999 -999
2010-04-06 11:15:20 51°33.044 2°56.131 -999 -999 -999 -999 -999
2010-04-06 11:15:30 51°33.044 2°56.127 -999 -999 -999 -999 -999
2010-04-06 11:15:40 51°33.043 2°56.123 -999 -999 -999 -999 -999
2010-04-06 11:15:50 51°33.042 2°56.12 -999 -999 -999 -999 -999
2010-04-06 11:16:00 51°33.042 2°56.116 -999 -999 -999 -999 -999
2010-04-06 11:16:10 51°33.041 2°56.112 -999 -999 -999 -999 -999
2010-04-06 11:16:20 51°33.04 2°56.108 -999 -999 -999 -999 -999
2010-04-06 11:16:30 51°33.04 2°56.105 -999 -999 -999 -999 -999
2010-04-06 11:16:40 51°33.039 2°56.101 -999 -999 -999 -999 -999
2010-04-06 11:16:50 51°33.038 2°56.097 -999 -999 -999 -999 -999
2010-04-06 11:17:00 51°33.038 2°56.093 -999 -999 -999 -999 -999
2010-04-06 11:17:10 51°33.037 2°56.089 -999 -999 -999 -999 -999
2010-04-06 11:17:20 51°33.036 2°56.085 -999 -999 -999 -999 -999
2010-04-06 11:17:30 51°33.036 2°56.082 -999 -999 -999 -999 -999
2010-04-06 11:17:40 51°33.035 2°56.078 -999 -999 -999 -999 -999
2010-04-06 11:17:50 51°33.034 2°56.074 -999 -999 -999 -999 -999
2010-04-06 11:18:00 51°33.034 2°56.07 -999 -999 -999 -999 -999
2010-04-06 11:18:10 51°33.033 2°56.067 -999 -999 -999 -999 -999
2010-04-06 11:18:20 51°33.032 2°56.063 -999 -999 -999 -999 -999
2010-04-06 11:18:30 51°33.032 2°56.059 -999 -999 -999 -999 -999
2010-04-06 11:18:40 51°33.031 2°56.055 -999 -999 -999 -999 -999
2010-04-06 11:18:50 51°33.03 2°56.052 -999 -999 -999 -999 -999
2010-04-06 11:19:00 51°33.03 2°56.048 -999 -999 -999 -999 -999
2010-04-06 11:19:10 51°33.029 2°56.044 -999 -999 -999 -999 -999
2010-04-06 11:19:20 51°33.028 2°56.04 -999 -999 -999 -999 -999
2010-04-06 11:19:30 51°33.028 2°56.037 -999 -999 -999 -999 -999
2010-04-06 11:19:40 51°33.027 2°56.032 -999 -999 -999 -999 -999
2010-04-06 11:19:50 51°33.027 2°56.029 -999 -999 -999 -999 -999
2010-04-06 11:20:00 51°33.026 2°56.025 -999 -999 -999 -999 -999
2010-04-06 11:20:10 51°33.025 2°56.021 -999 -999 -999 -999 -999
2010-04-06 11:20:20 51°33.024 2°56.017 -999 -999 -999 -999 -999
2010-04-06 11:20:30 51°33.023 2°56.013 -999 -999 -999 -999 -999
2010-04-06 11:20:40 51°33.023 2°56.01 -999 -999 -999 -999 -999
2010-04-06 11:20:50 51°33.022 2°56.006 -999 -999 -999 -999 -999
2010-04-06 11:21:00 51°33.021 2°56.002 -999 -999 -999 -999 -999
2010-04-06 11:21:10 51°33.021 2°55.998 -999 -999 -999 -999 -999
2010-04-06 11:21:20 51°33.02 2°55.994 -999 -999 -999 -999 -999
2010-04-06 11:21:30 51°33.019 2°55.99 -999 -999 -999 -999 -999
2010-04-06 11:21:40 51°33.018 2°55.986 -999 -999 -999 -999 -999
2010-04-06 11:21:50 51°33.018 2°55.982 -999 -999 -999 -999 -999
2010-04-06 11:22:00 51°33.017 2°55.978 -999 -999 -999 -999 -999
2010-04-06 11:22:10 51°33.017 2°55.974 -999 -999 -999 -999 -999
2010-04-06 11:22:20 51°33.016 2°55.971 -999 -999 -999 -999 -999
2010-04-06 11:22:30 51°33.016 2°55.967 -999 -999 -999 -999 -999
2010-04-06 11:22:40 51°33.015 2°55.963 -999 -999 -999 -999 -999
2010-04-06 11:22:50 51°33.014 2°55.959 -999 -999 -999 -999 -999
2010-04-06 11:23:00 51°33.014 2°55.955 -999 -999 -999 -999 -999
2010-04-06 11:23:10 51°33.014 2°55.951 -999 -999 -999 -999 -999
2010-04-06 11:23:20 51°33.013 2°55.947 -999 -999 -999 -999 -999
2010-04-06 11:23:30 51°33.012 2°55.943 -999 -999 -999 -999 -999
2010-04-06 11:23:40 51°33.012 2°55.939 -999 -999 -999 -999 -999
2010-04-06 11:23:50 51°33.011 2°55.935 -999 -999 -999 -999 -999
2010-04-06 11:24:00 51°33.011 2°55.931 -999 -999 -999 -999 -999
2010-04-06 11:24:10 51°33.01 2°55.927 -999 -999 -999 -999 -999
2010-04-06 11:24:20 51°33.01 2°55.923 -999 -999 -999 -999 -999
2010-04-06 11:24:30 51°33.009 2°55.919 -999 -999 -999 -999 -999
2010-04-06 11:24:40 51°33.008 2°55.915 -999 -999 -999 -999 -999
2010-04-06 11:24:50 51°33.008 2°55.911 -999 -999 -999 -999 -999
2010-04-06 11:25:00 51°33.008 2°55.91 -999 -999 -999 -999 -999
2010-04-06 11:25:10 51°33.009 2°55.911 -999 -999 -999 -999 -999
2010-04-06 11:25:20 51°33.01 2°55.917 -999 -999 -999 -999 -999
2010-04-06 11:25:30 51°33.013 2°55.928 -999 -999 -999 -999 -999
2010-04-06 11:25:40 51°33.016 2°55.944 -999 -999 -999 -999 -999
2010-04-06 11:25:50 51°33.02 2°55.964 -999 -999 -999 -999 -999
2010-04-06 11:26:00 51°33.025 2°55.987 -999 -999 -999 -999 -999
2010-04-06 11:26:10 51°33.03 2°56.013 -999 -999 -999 -999 -999
2010-04-06 11:26:20 51°33.037 2°56.04 -999 -999 -999 -999 -999
2010-04-06 11:26:30 51°33.045 2°56.068 -999 -999 -999 -999 -999
2010-04-06 11:26:40 51°33.054 2°56.096 -999 -999 -999 -999 -999
2010-04-06 11:26:50 51°33.063 2°56.122 -999 -999 -999 -999 -999
2010-04-06 11:27:00 51°33.073 2°56.145 -999 -999 -999 -999 -999
2010-04-06 11:27:10 51°33.083 2°56.166 -999 -999 -999 -999 -999
2010-04-06 11:27:20 51°33.094 2°56.187 -999 -999 -999 -999 -999
2010-04-06 11:27:30 51°33.103 2°56.204 -999 -999 -999 -999 -999
2010-04-06 11:27:40 51°33.113 2°56.221 -999 -999 -999 -999 -999
2010-04-06 11:27:50 51°33.124 2°56.236 -999 -999 -999 -999 -999
2010-04-06 11:28:00 51°33.136 2°56.253 -999 -999 -999 -999 -999
2010-04-06 11:28:10 51°33.146 2°56.265 -999 -999 -999 -999 -999
2010-04-06 11:28:20 51°33.158 2°56.279 -999 -999 -999 -999 -999
2010-04-06 11:28:30 51°33.167 2°56.292 -999 -999 -999 -999 -999
2010-04-06 11:28:40 51°33.173 2°56.308 -999 -999 -999 -999 -999
2010-04-06 11:28:50 51°33.177 2°56.324 -999 -999 -999 -999 -999
2010-04-06 11:29:00 51°33.178 2°56.342 -999 -999 -999 -999 -999
2010-04-06 11:29:10 51°33.176 2°56.357 -999 -999 -999 -999 -999
2010-04-06 11:29:20 51°33.173 2°56.371 -999 -999 -999 -999 -999
2010-04-06 11:29:30 51°33.168 2°56.385 -999 -999 -999 -999 -999
2010-04-06 11:29:40 51°33.161 2°56.396 -999 -999 -999 -999 -999
2010-04-06 11:29:50 51°33.153 2°56.405 -999 -999 -999 -999 -999
2010-04-06 11:30:00 51°33.143 2°56.412 -999 -999 -999 -999 -999
2010-04-06 11:30:10 51°33.132 2°56.417 -999 -999 -999 -999 -999
2010-04-06 11:30:20 51°33.121 2°56.418 -999 -999 -999 -999 -999
2010-04-06 11:30:30 51°33.11 2°56.415 -999 -999 -999 -999 -999
2010-04-06 11:30:40 51°33.096 2°56.409 -999 -999 -999 -999 -999
2010-04-06 11:30:50 51°33.086 2°56.399 -999 -999 -999 -999 -999
2010-04-06 11:31:00 51°33.076 2°56.385 -999 -999 -999 -999 -999
2010-04-06 11:31:10 51°33.068 2°56.369 -999 -999 -999 -999 -999
2010-04-06 11:31:20 51°33.062 2°56.352 -999 -999 -999 -999 -999
2010-04-06 11:31:30 51°33.058 2°56.335 -999 -999 -999 -999 -999
2010-04-06 11:31:40 51°33.055 2°56.318 -999 -999 -999 -999 -999
2010-04-06 11:31:50 51°33.054 2°56.301 -999 -999 -999 -999 -999
2010-04-06 11:32:00 51°33.054 2°56.284 -999 -999 -999 -999 -999
2010-04-06 11:32:10 51°33.055 2°56.267 -999 -999 -999 -999 -999
2010-04-06 11:32:20 51°33.056 2°56.248 -999 -999 -999 -999 -999
2010-04-06 11:32:30 51°33.057 2°56.232 -999 -999 -999 -999 -999
2010-04-06 11:32:40 51°33.058 2°56.213 -999 -999 -999 -999 -999
2010-04-06 11:32:50 51°33.059 2°56.196 -999 -999 -999 -999 -999
2010-04-06 11:33:00 51°33.06 2°56.178 -999 -999 -999 -999 -999
2010-04-06 11:33:10 51°33.06 2°56.159 -999 -999 -999 -999 -999
2010-04-06 11:33:20 51°33.061 2°56.137 -999 -999 -999 -999 -999
2010-04-06 11:33:30 51°33.062 2°56.12 -999 -999 -999 -999 -999
2010-04-06 11:33:40 51°33.064 2°56.102 -999 -999 -999 -999 -999
2010-04-06 11:33:50 51°33.067 2°56.084 -999 -999 -999 -999 -999
2010-04-06 11:34:00 51°33.071 2°56.069 -999 -999 -999 -999 -999
2010-04-06 11:34:10 51°33.076 2°56.055 -999 -999 -999 -999 -999
2010-04-06 11:34:20 51°33.081 2°56.044 -999 -999 -999 -999 -999
2010-04-06 11:34:30 51°33.087 2°56.035 -999 -999 -999 -999 -999
2010-04-06 11:34:40 51°33.094 2°56.028 -999 -999 -999 -999 -999
2010-04-06 11:34:50 51°33.1 2°56.022 -999 -999 -999 -999 -999
2010-04-06 11:35:00 51°33.107 2°56.019 -999 -999 -999 -999 -999
2010-04-06 11:35:10 51°33.113 2°56.019 -999 -999 -999 -999 -999
2010-04-06 11:35:20 51°33.119 2°56.019 -999 -999 -999 -999 -999
2010-04-06 11:35:30 51°33.124 2°56.022 -999 -999 -999 -999 -999
2010-04-06 11:35:40 51°33.13 2°56.026 -999 -999 -999 -999 -999
2010-04-06 11:35:50 51°33.135 2°56.031 -999 -999 -999 -999 -999
2010-04-06 11:36:00 51°33.142 2°56.038 -999 -999 -999 -999 -999
2010-04-06 11:36:10 51°33.149 2°56.045 -999 -999 -999 -999 -999
2010-04-06 11:36:20 51°33.156 2°56.052 -999 -999 -999 -999 -999
2010-04-06 11:36:30 51°33.164 2°56.061 -999 -999 -999 -999 -999
2010-04-06 11:36:40 51°33.172 2°56.069 -999 -999 -999 -999 -999
2010-04-06 11:36:50 51°33.18 2°56.078 -999 -999 -999 -999 -999
2010-04-06 11:37:00 51°33.19 2°56.088 -999 -999 -999 -999 -999
2010-04-06 11:37:10 51°33.199 2°56.097 -999 -999 -999 -999 -999
2010-04-06 11:37:20 51°33.208 2°56.106 -999 -999 -999 -999 -999
2010-04-06 11:37:30 51°33.218 2°56.115 -999 -999 -999 -999 -999
2010-04-06 11:37:40 51°33.228 2°56.124 -999 -999 -999 -999 -999
2010-04-06 11:37:50 51°33.239 2°56.132 -999 -999 -999 -999 -999
2010-04-06 11:38:00 51°33.249 2°56.138 -999 -999 -999 -999 -999
2010-04-06 11:38:10 51°33.26 2°56.141 -999 -999 -999 -999 -999
2010-04-06 11:38:20 51°33.272 2°56.141 -999 -999 -999 -999 -999
2010-04-06 11:38:30 51°33.283 2°56.138 -999 -999 -999 -999 -999
2010-04-06 11:38:40 51°33.294 2°56.132 -999 -999 -999 -999 -999
2010-04-06 11:38:50 51°33.305 2°56.123 -999 -999 -999 -999 -999
2010-04-06 11:39:00 51°33.314 2°56.111 -999 -999 -999 -999 -999
2010-04-06 11:39:10 51°33.323 2°56.097 -999 -999 -999 -999 -999
2010-04-06 11:39:20 51°33.331 2°56.079 -999 -999 -999 -999 -999
2010-04-06 11:39:30 51°33.336 2°56.062 -999 -999 -999 -999 -999
2010-04-06 11:39:40 51°33.341 2°56.042 -999 -999 -999 -999 -999
2010-04-06 11:39:50 51°33.345 2°56.02 -999 -999 -999 -999 -999
2010-04-06 11:40:00 51°33.348 2°55.996 -999 -999 -999 -999 -999
2010-04-06 11:40:10 51°33.352 2°55.966 -999 -999 -999 -999 -999
2010-04-06 11:40:20 51°33.356 2°55.927 -999 -999 -999 -999 -999
2010-04-06 11:40:30 51°33.36 2°55.891 -999 -999 -999 -999 -999
2010-04-06 11:40:40 51°33.367 2°55.844 -999 -999 -999 -999 -999
2010-04-06 11:40:50 51°33.373 2°55.805 -999 -999 -999 -999 -999
2010-04-06 11:41:00 51°33.382 2°55.755 -999 -999 -999 -999 -999
2010-04-06 11:41:10 51°33.39 2°55.709 -999 -999 -999 -999 -999
2010-04-06 11:41:20 51°33.394 2°55.661 -999 -999 -999 -999 -999
2010-04-06 11:41:30 51°33.395 2°55.616 -999 -999 -999 -999 -999
2010-04-06 11:41:40 51°33.394 2°55.566 -999 -999 -999 -999 -999
2010-04-06 11:41:50 51°33.39 2°55.516 -999 -999 -999 -999 -999
2010-04-06 11:42:00 51°33.383 2°55.467 -999 -999 -999 -999 -999
2010-04-06 11:42:10 51°33.375 2°55.418 -999 -999 -999 -999 -999
2010-04-06 11:42:20 51°33.364 2°55.37 -999 -999 -999 -999 -999
2010-04-06 11:42:30 51°33.35 2°55.326 -999 -999 -999 -999 -999
2010-04-06 11:42:40 51°33.333 2°55.282 -999 -999 -999 -999 -999
2010-04-06 11:42:50 51°33.316 2°55.238 -999 -999 -999 -999 -999
2010-04-06 11:43:00 51°33.298 2°55.196 -999 -999 -999 -999 -999
2010-04-06 11:43:10 51°33.276 2°55.158 -999 -999 -999 -999 -999
2010-04-06 11:43:20 51°33.252 2°55.125 -999 -999 -999 -999 -999
2010-04-06 11:43:30 51°33.227 2°55.095 -999 -999 -999 -999 -999
2010-04-06 11:43:40 51°33.201 2°55.066 -999 -999 -999 -999 -999
2010-04-06 11:43:50 51°33.175 2°55.038 -999 -999 -999 -999 -999
2010-04-06 11:44:00 51°33.148 2°55.012 -999 -999 -999 -999 -999
2010-04-06 11:44:10 51°33.119 2°54.996 -999 -999 -999 -999 -999
2010-04-06 11:44:20 51°33.091 2°54.991 -999 -999 -999 -999 -999
2010-04-06 11:44:30 51°33.062 2°54.994 -999 -999 -999 -999 -999
2010-04-06 11:44:40 51°33.035 2°55.004 -999 -999 -999 -999 -999
2010-04-06 11:44:50 51°33.009 2°55.022 -999 -999 -999 -999 -999
2010-04-06 11:45:00 51°32.985 2°55.049 -999 -999 -999 -999 -999
2010-04-06 11:45:10 51°32.969 2°55.073 -999 -999 -999 -999 -999
2010-04-06 11:45:20 51°32.95 2°55.102 -999 -999 -999 -999 -999
2010-04-06 11:45:30 51°32.936 2°55.125 -999 -999 -999 -999 -999
2010-04-06 11:45:40 51°32.919 2°55.153 -999 -999 -999 -999 -999
2010-04-06 11:45:50 51°32.905 2°55.178 -999 -999 -999 -999 -999
2010-04-06 11:46:00 51°32.892 2°55.2 -999 -999 -999 -999 -999
2010-04-06 11:46:10 51°32.878 2°55.224 -999 -999 -999 -999 -999
2010-04-06 11:46:20 51°32.864 2°55.247 -999 -999 -999 -999 -999
2010-04-06 11:46:30 51°32.85 2°55.268 -999 -999 -999 -999 -999
2010-04-06 11:46:40 51°32.837 2°55.287 -999 -999 -999 -999 -999
2010-04-06 11:46:50 51°32.825 2°55.304 -999 -999 -999 -999 -999
2010-04-06 11:47:00 51°32.815 2°55.32 -999 -999 -999 -999 -999
2010-04-06 11:47:10 51°32.805 2°55.334 -999 -999 -999 -999 -999
2010-04-06 11:47:20 51°32.796 2°55.348 -999 -999 -999 -999 -999
2010-04-06 11:47:30 51°32.788 2°55.361 -999 -999 -999 -999 -999
2010-04-06 11:47:40 51°32.782 2°55.372 -999 -999 -999 -999 -999
2010-04-06 11:47:50 51°32.776 2°55.383 -999 -999 -999 -999 -999
2010-04-06 11:48:00 51°32.771 2°55.394 -999 -999 -999 -999 -999
2010-04-06 11:48:10 51°32.768 2°55.403 -999 -999 -999 -999 -999
2010-04-06 11:48:20 51°32.766 2°55.41 -999 -999 -999 -999 -999
2010-04-06 11:48:30 51°32.764 2°55.413 -999 -999 -999 -999 -999
2010-04-06 11:48:40 51°32.762 2°55.415 -999 -999 -999 -999 -999
2010-04-06 11:48:50 51°32.76 2°55.413 -999 -999 -999 -999 -999
2010-04-06 11:49:00 51°32.759 2°55.411 -999 -999 -999 -999 -999
2010-04-06 11:49:10 51°32.757 2°55.408 -999 -999 -999 -999 -999
2010-04-06 11:49:20 51°32.755 2°55.405 -999 -999 -999 -999 -999
2010-04-06 11:49:30 51°32.754 2°55.403 -999 -999 -999 -999 -999
2010-04-06 11:49:40 51°32.753 2°55.4 -999 -999 -999 -999 -999
2010-04-06 11:49:50 51°32.751 2°55.397 -999 -999 -999 -999 -999
2010-04-06 11:50:00 51°32.75 2°55.394 -999 -999 -999 -999 -999
2010-04-06 11:50:10 51°32.749 2°55.391 -999 -999 -999 -999 -999
2010-04-06 11:50:20 51°32.747 2°55.388 -999 -999 -999 -999 -999
2010-04-06 11:50:30 51°32.746 2°55.385 -999 -999 -999 -999 -999
2010-04-06 11:50:40 51°32.745 2°55.381 -999 -999 -999 -999 -999
2010-04-06 11:50:50 51°32.745 2°55.378 -999 -999 -999 -999 -999
2010-04-06 11:51:00 51°32.744 2°55.375 -999 -999 -999 -999 -999
2010-04-06 11:51:10 51°32.743 2°55.372 -999 -999 -999 -999 -999
2010-04-06 11:51:20 51°32.742 2°55.369 -999 -999 -999 -999 -999
2010-04-06 11:51:30 51°32.742 2°55.365 -999 -999 -999 -999 -999
2010-04-06 11:51:40 51°32.741 2°55.362 -999 -999 -999 -999 -999
2010-04-06 11:51:50 51°32.74 2°55.359 -999 -999 -999 -999 -999
2010-04-06 11:52:00 51°32.74 2°55.356 -999 -999 -999 -999 -999
2010-04-06 11:52:10 51°32.739 2°55.353 -999 -999 -999 -999 -999
2010-04-06 11:52:20 51°32.739 2°55.35 -999 -999 -999 -999 -999
2010-04-06 11:52:30 51°32.738 2°55.347 -999 -999 -999 -999 -999
2010-04-06 11:52:40 51°32.737 2°55.345 -999 -999 -999 -999 -999
2010-04-06 11:52:50 51°32.737 2°55.342 -999 -999 -999 -999 -999
2010-04-06 11:53:00 51°32.736 2°55.339 -999 -999 -999 -999 -999
2010-04-06 11:53:10 51°32.736 2°55.336 -999 -999 -999 -999 -999
2010-04-06 11:53:20 51°32.735 2°55.334 -999 -999 -999 -999 -999
2010-04-06 11:53:30 51°32.735 2°55.331 -999 -999 -999 -999 -999
2010-04-06 11:53:40 51°32.734 2°55.329 -999 -999 -999 -999 -999
2010-04-06 11:53:50 51°32.733 2°55.327 -999 -999 -999 -999 -999
2010-04-06 11:54:00 51°32.732 2°55.324 -999 -999 -999 -999 -999
2010-04-06 11:54:10 51°32.731 2°55.322 -999 -999 -999 -999 -999
2010-04-06 11:54:20 51°32.73 2°55.32 -999 -999 -999 -999 -999
2010-04-06 11:54:30 51°32.729 2°55.317 -999 -999 -999 -999 -999
2010-04-06 11:54:40 51°32.728 2°55.315 -999 -999 -999 -999 -999
2010-04-06 11:54:50 51°32.727 2°55.312 -999 -999 -999 -999 -999
2010-04-06 11:55:00 51°32.726 2°55.309 -999 -999 -999 -999 -999
2010-04-06 11:55:10 51°32.725 2°55.307 -999 -999 -999 -999 -999
2010-04-06 11:55:20 51°32.723 2°55.304 -999 -999 -999 -999 -999
2010-04-06 11:55:30 51°32.721 2°55.301 -999 -999 -999 -999 -999
2010-04-06 11:55:40 51°32.72 2°55.298 -999 -999 -999 -999 -999
2010-04-06 11:55:50 51°32.719 2°55.295 -999 -999 -999 -999 -999
2010-04-06 11:56:00 51°32.718 2°55.292 -999 -999 -999 -999 -999
2010-04-06 11:56:10 51°32.717 2°55.289 -999 -999 -999 -999 -999
2010-04-06 11:56:20 51°32.716 2°55.286 -999 -999 -999 -999 -999
2010-04-06 11:56:30 51°32.715 2°55.283 -999 -999 -999 -999 -999
2010-04-06 11:56:40 51°32.714 2°55.28 -999 -999 -999 -999 -999